Flag for Germany Weather past 2 weeks in Springe, Lower Saxony, Germany

Now
46 °F

Cool.


Feels Like: 43 °F
Forecast: 42 / 62 °F
Wind: 7 mph from South

Location: Wunstorf Airport

Current Time: May 28, 2015 at 2:38:43 AM

Latest Report: May 28, 2015 at 1:20 AM


Visibility: N/A

Pressure: 30.04 "Hg

Humidity: 76%

Dew point: 39 °F

Location of SpringeLocation

Historic Weather in Springe — Graph

°F

Springe temperature yesterday

Maximum temperature yesterday: 59 °F (at 4:20 PM)
Minimum temperature yesterday: 45 °F (at 3:20 AM)
Average temperature yesterday: 52 °F

Past Weeks' High & Low Weather Summary

 TemperatureHumidityPressure
High66 °F (May 18, 3:20 PM)94% (May 16, 5:20 PM)30.33 "Hg (May 16, 5:20 PM)
Low37 °F (May 16, 4:20 AM)39% (May 17, 6:20 PM)29.59 "Hg (May 18, 8:20 PM)
Average53 °F68%30.05 "Hg
* Reported May 13 1:20 AM — May 28 1:20 AM, Springe, Weather by CustomWeather, © 2015

Note: Actual official high and low records may vary slightly from our data, if they occured in-between our weather recording intervals... More about our weather records

Advertising

Springe weather history for previous 24 hours

 ConditionsComfort  
Time TempWeatherWind HumidityBarometerVisibility
1:20 AM
Thu, May 28
46 °FCool.7 mph76%30.04 "HgN/A
12:20 AM46 °FCool.6 mph76%30.04 "HgN/A
11:20 PM
Wed, May 27
46 °FCool.6 mph82%30.07 "HgN/A
10:20 PM48 °FCool.6 mph76%30.09 "HgN/A
9:20 PM52 °FCool.5 mph72%30.09 "HgN/A
8:20 PM57 °FCool.5 mph63%30.09 "HgN/A
7:20 PM57 °FBroken clouds.6 mph55%30.12 "HgN/A
6:20 PM57 °FPartly sunny.8 mph55%30.15 "HgN/A
5:20 PM59 °FPartly sunny.9 mph48%30.15 "HgN/A
4:20 PM59 °FPartly sunny.10 mph48%30.18 "HgN/A
3:20 PM55 °FPartly sunny.5 mph59%30.18 "HgN/A
2:20 PM57 °FPartly sunny.9 mph55%30.18 "HgN/A
1:20 PM57 °FPartly sunny.13 mph51%30.18 "HgN/A
12:20 PM55 °FPartly sunny.14 mph59%30.21 "HgN/A
11:20 AM54 °FPartly sunny.10 mph67%30.21 "HgN/A
10:20 AM52 °FBroken clouds.15 mph77%30.21 "HgN/A
9:20 AM52 °FBroken clouds.12 mph72%30.21 "HgN/A
8:20 AM52 °FScattered clouds.15 mph72%30.21 "HgN/A
7:20 AM50 °FPartly sunny.12 mph76%30.18 "HgN/A
6:20 AM48 °FPartly sunny.8 mph82%30.18 "HgN/A
5:20 AM45 °FQuite cool.8 mph87%30.18 "HgN/A
4:20 AM46 °FCool.8 mph82%30.18 "HgN/A
3:20 AM45 °FQuite cool.9 mph87%30.18 "HgN/A
2:20 AM46 °FCool.7 mph82%30.18 "HgN/A
Weather by CustomWeather, © 2015

See weather overviewHow to use our weather pages